Wetterdaten: Donnerstag, 18.09.2014
Datum Zeit Temperatur Luftfeuchte Luftdruck Regen Wind Richtung Richtung Taupunkt Windchill Windben
18.09.2014 00:00 11,5 C 90 % 1016,1 hPa 0,0 l/m 0,0 km/h (0 Bft) S-SO 157 9,9 C 22,8 C 0,0 km/h (0 Bft)
18.09.2014 00:08 11,4 C 91 % 1015,9 hPa 0,0 l/m 0,0 km/h (0 Bft) S-SO 157 10,0 C 22,8 C 0,0 km/h (0 Bft)
18.09.2014 00:10 11,4 C 91 % 1015,9 hPa 0,0 l/m 0,0 km/h (0 Bft) S-SO 157 10,0 C 22,8 C 0,0 km/h (0 Bft)
18.09.2014 00:20 11,7 C 92 % 1015,9 hPa 0,0 l/m 0,0 km/h (0 Bft) S-SO 157 10,4 C 22,8 C 0,0 km/h (0 Bft)
18.09.2014 00:30 11,7 C 92 % 1015,4 hPa 0,0 l/m 0,0 km/h (0 Bft) S-SO 157 10,4 C 22,8 C 0,0 km/h (0 Bft)
18.09.2014 00:40 11,3 C 91 % 1015,4 hPa 0,0 l/m 0,0 km/h (0 Bft) S-SO 157 9,9 C 22,8 C 0,0 km/h (0 Bft)
18.09.2014 00:50 11,5 C 92 % 1014,6 hPa 0,0 l/m 0,0 km/h (0 Bft) S-SO 157 10,2 C 22,8 C 0,0 km/h (0 Bft)
18.09.2014 01:00 11,7 C 92 % 1014,6 hPa 0,0 l/m 0,0 km/h (0 Bft) S-SO 157 10,4 C 22,8 C 0,0 km/h (0 Bft)
18.09.2014 01:10 11,4 C 92 % 1014,7 hPa 0,0 l/m 0,0 km/h (0 Bft) S-SO 157 10,1 C 22,8 C 0,0 km/h (0 Bft)
18.09.2014 01:20 11,4 C 92 % 1014,7 hPa 0,0 l/m 0,0 km/h (0 Bft) S-SO 157 10,1 C 22,8 C 0,0 km/h (0 Bft)
18.09.2014 01:30 11,8 C 92 % 1014,7 hPa 0,0 l/m 0,0 km/h (0 Bft) S-SO 157 10,5 C 22,8 C 0,0 km/h (0 Bft)
18.09.2014 01:40 11,5 C 92 % 1014,7 hPa 0,0 l/m 0,0 km/h (0 Bft) S-SO 157 10,2 C 22,8 C 0,0 km/h (0 Bft)
18.09.2014 01:50 12,2 C 92 % 1014,5 hPa 0,0 l/m 0,0 km/h (0 Bft) S-SO 157 10,9 C 22,8 C 0,0 km/h (0 Bft)
18.09.2014 02:00 11,9 C 92 % 1014,5 hPa 0,0 l/m 0,0 km/h (0 Bft) S-SO 157 10,6 C 22,8 C 0,0 km/h (0 Bft)
18.09.2014 02:10 12,0 C 92 % 1014,6 hPa 0,0 l/m 0,0 km/h (0 Bft) S-SO 157 10,7 C 22,8 C 0,0 km/h (0 Bft)
18.09.2014 02:20 12,0 C 92 % 1014,6 hPa 0,0 l/m 0,0 km/h (0 Bft) S-SO 157 10,7 C 22,8 C 0,0 km/h (0 Bft)
18.09.2014 02:30 12,0 C 92 % 1014,6 hPa 0,0 l/m 0,0 km/h (0 Bft) S-SO 157 10,7 C 22,8 C 0,0 km/h (0 Bft)
18.09.2014 02:40 12,4 C 93 % 1014,6 hPa 0,0 l/m 0,0 km/h (0 Bft) S-SO 157 11,3 C 22,8 C 0,0 km/h (0 Bft)
18.09.2014 02:50 11,8 C 92 % 1014,4 hPa 0,0 l/m 0,0 km/h (0 Bft) S-SO 157 10,5 C 22,8 C 0,0 km/h (0 Bft)
18.09.2014 03:00 11,7 C 93 % 1014,4 hPa 0,0 l/m 0,0 km/h (0 Bft) S-SO 157 10,6 C 22,8 C 0,0 km/h (0 Bft)
18.09.2014 03:09 11,5 C 92 % 1014,4 hPa 0,0 l/m 0,0 km/h (0 Bft) S-SO 157 10,2 C 22,8 C 0,0 km/h (0 Bft)
18.09.2014 03:20 11,3 C 92 % 1014,4 hPa 0,0 l/m 0,0 km/h (0 Bft) S-SO 157 10,0 C 22,8 C 0,0 km/h (0 Bft)
18.09.2014 03:30 11,3 C 92 % 1014,5 hPa 0,0 l/m 0,0 km/h (0 Bft) S-SO 157 10,0 C 22,8 C 0,0 km/h (0 Bft)
18.09.2014 03:40 11,2 C 92 % 1014,5 hPa 0,0 l/m 0,0 km/h (0 Bft) S-SO 157 9,9 C 22,8 C 0,0 km/h (0 Bft)
18.09.2014 03:50 10,9 C 92 % 1014,3 hPa 0,0 l/m 0,0 km/h (0 Bft) S-SO 157 9,7 C 22,8 C 0,0 km/h (0 Bft)
18.09.2014 04:00 10,9 C 93 % 1014,3 hPa 0,0 l/m 0,0 km/h (0 Bft) S-SO 157 9,8 C 22,8 C 0,0 km/h (0 Bft)
18.09.2014 04:10 10,9 C 93 % 1014,3 hPa 0,0 l/m 0,0 km/h (0 Bft) S-SO 157 9,8 C 22,8 C 0,0 km/h (0 Bft)
18.09.2014 04:20 11,1 C 93 % 1014,3 hPa 0,0 l/m 0,0 km/h (0 Bft) S-SO 157 10,0 C 22,8 C 0,0 km/h (0 Bft)
18.09.2014 04:30 11,2 C 93 % 1014,4 hPa 0,0 l/m 0,0 km/h (0 Bft) S-SO 157 10,1 C 22,8 C 0,0 km/h (0 Bft)
18.09.2014 04:40 11,2 C 93 % 1014,4 hPa 0,0 l/m 0,0 km/h (0 Bft) S-SO 157 10,1 C 22,8 C 0,0 km/h (0 Bft)
18.09.2014 04:50 11,5 C 94 % 1014,2 hPa 0,0 l/m 0,0 km/h (0 Bft) S-SO 157 10,6 C 22,8 C 0,0 km/h (0 Bft)
18.09.2014 05:00 11,5 C 94 % 1014,2 hPa 0,0 l/m 0,0 km/h (0 Bft) S-SO 157 10,6 C 22,8 C 0,0 km/h (0 Bft)
18.09.2014 05:10 11,4 C 94 % 1014,3 hPa 0,0 l/m 0,0 km/h (0 Bft) S-SO 157 10,5 C 22,8 C 0,0 km/h (0 Bft)
18.09.2014 05:20 11,6 C 94 % 1014,3 hPa 0,0 l/m 0,0 km/h (0 Bft) S-SO 157 10,7 C 22,8 C 0,0 km/h (0 Bft)
18.09.2014 05:30 11,4 C 94 % 1014,3 hPa 0,0 l/m 0,0 km/h (0 Bft) S-SO 157 10,5 C 22,8 C 0,0 km/h (0 Bft)
18.09.2014 05:40 11,2 C 94 % 1014,3 hPa 0,0 l/m 0,0 km/h (0 Bft) S-SO 157 10,3 C 22,8 C 0,0 km/h (0 Bft)
18.09.2014 05:50 11,0 C 94 % 1014,3 hPa 0,0 l/m 0,0 km/h (0 Bft) S-SO 157 10,1 C 22,8 C 0,0 km/h (0 Bft)
18.09.2014 06:00 11,0 C 94 % 1014,3 hPa 0,0 l/m 0,0 km/h (0 Bft) S-SO 157 10,1 C 22,8 C 0,0 km/h (0 Bft)
18.09.2014 06:10 10,7 C 94 % 1014,2 hPa 0,0 l/m 0,0 km/h (0 Bft) S-SO 157 9,8 C 22,8 C 0,0 km/h (0 Bft)
18.09.2014 06:20 10,4 C 94 % 1014,2 hPa 0,0 l/m 0,0 km/h (0 Bft) S-SO 157 9,5 C 22,8 C 0,0 km/h (0 Bft)
18.09.2014 06:30 10,3 C 94 % 1014,2 hPa 0,0 l/m 0,0 km/h (0 Bft) S-SO 157 9,4 C 22,8 C 0,0 km/h (0 Bft)
18.09.2014 06:40 9,8 C 94 % 1014,2 hPa 0,0 l/m 0,0 km/h (0 Bft) S-SO 157 8,9 C 22,8 C 0,0 km/h (0 Bft)
18.09.2014 06:50 9,7 C 94 % 1014,5 hPa 0,0 l/m 0,0 km/h (0 Bft) S-SO 157 8,8 C 22,8 C 0,0 km/h (0 Bft)
18.09.2014 06:58 9,7 C 94 % 1014,5 hPa 0,0 l/m 0,0 km/h (0 Bft) S-SO 157 8,8 C 22,8 C 0,0 km/h (0 Bft)
18.09.2014 07:00 9,7 C 94 % 1014,5 hPa 0,0 l/m 0,0 km/h (0 Bft) S-SO 157 8,8 C 22,8 C 0,0 km/h (0 Bft)
18.09.2014 07:10 9,4 C 94 % 1014,3 hPa 0,0 l/m 0,0 km/h (0 Bft) S-SO 157 8,5 C 22,8 C 0,0 km/h (0 Bft)
18.09.2014 07:20 9,3 C 94 % 1014,3 hPa 0,0 l/m 0,0 km/h (0 Bft) S-SO 157 8,4 C 22,8 C 0,0 km/h (0 Bft)
18.09.2014 07:30 9,8 C 94 % 1014,4 hPa 0,0 l/m 0,0 km/h (0 Bft) S-SO 157 8,9 C 22,8 C 0,0 km/h (0 Bft)
18.09.2014 07:40 9,5 C 94 % 1014,4 hPa 0,0 l/m 0,0 km/h (0 Bft) S-SO 157 8,6 C 22,8 C 0,0 km/h (0 Bft)
18.09.2014 07:50 9,4 C 94 % 1014,2 hPa 0,0 l/m 0,0 km/h (0 Bft) S-SO 157 8,5 C 22,8 C 0,0 km/h (0 Bft)
18.09.2014 08:00 9,9 C 94 % 1014,2 hPa 0,0 l/m 0,0 km/h (0 Bft) S-SO 157 9,0 C 22,8 C 0,0 km/h (0 Bft)
18.09.2014 08:10 9,9 C 94 % 1014,4 hPa 0,0 l/m 0,0 km/h (0 Bft) S-SO 157 9,0 C 22,8 C 0,0 km/h (0 Bft)
18.09.2014 08:20 10,3 C 94 % 1014,4 hPa 0,0 l/m 0,0 km/h (0 Bft) S-SO 157 9,4 C 22,8 C 0,0 km/h (0 Bft)
18.09.2014 08:30 10,7 C 94 % 1014,6 hPa 0,0 l/m 0,0 km/h (0 Bft) S-SO 157 9,8 C 22,8 C 0,0 km/h (0 Bft)
18.09.2014 08:40 11,4 C 94 % 1014,6 hPa 0,0 l/m 0,0 km/h (0 Bft) S-SO 157 10,5 C 22,8 C 0,0 km/h (0 Bft)
18.09.2014 08:50 11,9 C 94 % 1014,9 hPa 0,0 l/m 0,0 km/h (0 Bft) S-SO 157 11,0 C 22,8 C 0,0 km/h (0 Bft)
18.09.2014 09:00 15,6 C 93 % 1014,9 hPa 0,0 l/m 0,0 km/h (0 Bft) S-SO 157 14,5 C 22,8 C 0,0 km/h (0 Bft)
18.09.2014 09:10 17,9 C 86 % 1014,8 hPa 0,0 l/m 0,0 km/h (0 Bft) S-SO 157 15,5 C 22,8 C 0,0 km/h (0 Bft)
18.09.2014 09:20 18,7 C 83 % 1014,8 hPa 0,0 l/m 0,0 km/h (0 Bft) S-SO 157 15,8 C 22,8 C 0,0 km/h (0 Bft)
18.09.2014 09:30 20,0 C 81 % 1015,1 hPa 0,0 l/m 0,0 km/h (0 Bft) S-SO 157 16,6 C 22,8 C 0,0 km/h (0 Bft)
18.09.2014 09:40 21,1 C 78 % 1015,1 hPa 0,0 l/m 0,0 km/h (0 Bft) S-SO 157 17,1 C 22,8 C 0,0 km/h (0 Bft)
18.09.2014 09:50 22,2 C 71 % 1015,3 hPa 0,0 l/m 0,0 km/h (0 Bft) S-SO 157 16,7 C 22,8 C 0,0 km/h (0 Bft)
18.09.2014 09:59 23,4 C 70 % 1015,3 hPa 0,0 l/m 0,0 km/h (0 Bft) S-SO 157 17,6 C 22,8 C 0,0 km/h (0 Bft)
18.09.2014 10:00 23,4 C 70 % 1015,3 hPa 0,0 l/m 0,0 km/h (0 Bft) S-SO 157 17,6 C 22,8 C 0,0 km/h (0 Bft)
18.09.2014 10:10 24,7 C 61 % 1015,8 hPa 0,0 l/m 0,0 km/h (0 Bft) S-SO 157 16,7 C 22,8 C 0,0 km/h (0 Bft)
18.09.2014 10:20 24,5 C 55 % 1015,8 hPa 0,0 l/m 0,0 km/h (0 Bft) S-SO 157 14,9 C 22,8 C 0,0 km/h (0 Bft)
18.09.2014 10:30 25,7 C 53 % 1016,3 hPa 0,0 l/m 0,0 km/h (0 Bft) S-SO 157 15,4 C 22,8 C 0,0 km/h (0 Bft)
18.09.2014 10:40 25,9 C 49 % 1016,3 hPa 0,0 l/m 0,0 km/h (0 Bft) S-SO 157 14,4 C 22,8 C 0,0 km/h (0 Bft)
18.09.2014 10:50 24,8 C 48 % 1017,2 hPa 0,0 l/m 0,0 km/h (0 Bft) S-SO 157 13,0 C 22,8 C 0,0 km/h (0 Bft)
18.09.2014 11:00 24,5 C 44 % 1017,2 hPa 0,0 l/m 0,0 km/h (0 Bft) S-SO 157 11,4 C 22,8 C 0,0 km/h (0 Bft)
18.09.2014 11:10 25,1 C 44 % 1017,8 hPa 0,0 l/m 0,0 km/h (0 Bft) S-SO 157 12,0 C 22,8 C 0,0 km/h (0 Bft)
18.09.2014 11:20 25,4 C 42 % 1017,8 hPa 0,0 l/m 0,0 km/h (0 Bft) S-SO 157 11,5 C 22,8 C 0,0 km/h (0 Bft)
18.09.2014 11:30 26,5 C 40 % 1018,4 hPa 0,0 l/m 0,0 km/h (0 Bft) S-SO 157 11,8 C 22,8 C 0,0 km/h (0 Bft)
18.09.2014 11:40 25,8 C 42 % 1018,4 hPa 0,0 l/m 0,0 km/h (0 Bft) S-SO 157 11,9 C 22,8 C 0,0 km/h (0 Bft)
18.09.2014 11:50 26,3 C 39 % 1018,6 hPa 0,0 l/m 0,0 km/h (0 Bft) S-SO 157 11,2 C 22,8 C 0,0 km/h (0 Bft)
18.09.2014 12:00 27,1 C 37 % 1018,6 hPa 0,0 l/m 0,0 km/h (0 Bft) S-SO 157 11,1 C 22,8 C 0,0 km/h (0 Bft)
18.09.2014 12:10 26,3 C 37 % 1018,7 hPa 0,0 l/m 0,0 km/h (0 Bft) S-SO 157 10,4 C 22,8 C 0,0 km/h (0 Bft)
18.09.2014 12:20 27,6 C 37 % 1018,7 hPa 0,0 l/m 0,0 km/h (0 Bft) S-SO 157 11,6 C 22,8 C 0,0 km/h (0 Bft)
18.09.2014 12:30 27,6 C 36 % 1019,6 hPa 0,0 l/m 0,0 km/h (0 Bft) S-SO 157 11,2 C 22,8 C 0,0 km/h (0 Bft)
18.09.2014 12:40 27,1 C 35 % 1019,6 hPa 0,0 l/m 0,0 km/h (0 Bft) S-SO 157 10,3 C 22,8 C 0,0 km/h (0 Bft)
18.09.2014 12:50 26,8 C 36 % 1018,6 hPa 0,0 l/m 0,0 km/h (0 Bft) S-SO 157 10,5 C 22,8 C 0,0 km/h (0 Bft)
18.09.2014 12:59 26,8 C 36 % 1018,6 hPa 0,0 l/m 0,0 km/h (0 Bft) S-SO 157 10,5 C 22,8 C 0,0 km/h (0 Bft)
18.09.2014 13:00 26,8 C 36 % 1018,6 hPa 0,0 l/m 0,0 km/h (0 Bft) S-SO 157 10,5 C 22,8 C 0,0 km/h (0 Bft)
18.09.2014 13:10 26,1 C 38 % 1018,1 hPa 0,0 l/m 0,0 km/h (0 Bft) S-SO 157 10,7 C 22,8 C 0,0 km/h (0 Bft)
18.09.2014 13:20 25,9 C 36 % 1018,1 hPa 0,0 l/m 0,0 km/h (0 Bft) S-SO 157 9,7 C 22,8 C 0,0 km/h (0 Bft)
18.09.2014 13:30 26,4 C 36 % 1017,8 hPa 0,0 l/m 0,0 km/h (0 Bft) S-SO 157 10,1 C 22,8 C 0,0 km/h (0 Bft)
18.09.2014 13:40 26,0 C 38 % 1017,8 hPa 0,0 l/m 0,0 km/h (0 Bft) S-SO 157 10,6 C 22,8 C 0,0 km/h (0 Bft)
18.09.2014 13:50 26,1 C 38 % 1017,2 hPa 0,0 l/m 0,0 km/h (0 Bft) S-SO 157 10,7 C 22,8 C 0,0 km/h (0 Bft)
18.09.2014 14:00 25,8 C 37 % 1017,2 hPa 0,0 l/m 0,0 km/h (0 Bft) S-SO 157 10,0 C 22,8 C 0,0 km/h (0 Bft)
18.09.2014 14:10 25,9 C 38 % 1017,1 hPa 0,0 l/m 0,0 km/h (0 Bft) S-SO 157 10,5 C 22,8 C 0,0 km/h (0 Bft)
18.09.2014 14:20 25,2 C 39 % 1017,1 hPa 0,0 l/m 0,0 km/h (0 Bft) S-SO 157 10,2 C 22,8 C 0,0 km/h (0 Bft)
18.09.2014 14:30 25,5 C 38 % 1016,8 hPa 0,0 l/m 0,0 km/h (0 Bft) S-SO 157 10,1 C 22,8 C 0,0 km/h (0 Bft)
18.09.2014 14:40 25,9 C 39 % 1016,8 hPa 0,0 l/m 0,0 km/h (0 Bft) S-SO 157 10,9 C 22,8 C 0,0 km/h (0 Bft)
18.09.2014 14:50 25,0 C 36 % 1016,8 hPa 0,0 l/m 0,0 km/h (0 Bft) S-SO 157 8,9 C 22,8 C 0,0 km/h (0 Bft)
18.09.2014 15:00 26,0 C 35 % 1016,8 hPa 0,0 l/m 0,0 km/h (0 Bft) S-SO 157 9,3 C 22,8 C 0,0 km/h (0 Bft)
18.09.2014 15:10 25,9 C 37 % 1016,4 hPa 0,0 l/m 0,0 km/h (0 Bft) S-SO 157 10,1 C 22,8 C 0,0 km/h (0 Bft)
18.09.2014 15:20 25,7 C 40 % 1016,4 hPa 0,0 l/m 0,0 km/h (0 Bft) S-SO 157 11,1 C 22,8 C 0,0 km/h (0 Bft)
18.09.2014 15:30 24,7 C 39 % 1016,4 hPa 0,0 l/m 0,0 km/h (0 Bft) S-SO 157 9,8 C 22,8 C 0,0 km/h (0 Bft)
18.09.2014 15:40 25,0 C 41 % 1016,4 hPa 0,0 l/m 0,0 km/h (0 Bft) S-SO 157 10,8 C 22,8 C 0,0 km/h (0 Bft)
18.09.2014 15:50 24,7 C 40 % 1016,5 hPa 0,0 l/m 0,0 km/h (0 Bft) S-SO 157 10,2 C 22,8 C 0,0 km/h (0 Bft)
18.09.2014 16:00 24,9 C 40 % 1016,5 hPa 0,0 l/m 0,0 km/h (0 Bft) S-SO 157 10,4 C 22,8 C 0,0 km/h (0 Bft)
18.09.2014 16:10 24,0 C 43 % 1016,4 hPa 0,0 l/m 0,0 km/h (0 Bft) S-SO 157 10,6 C 22,8 C 0,0 km/h (0 Bft)
18.09.2014 16:20 23,8 C 44 % 1016,4 hPa 0,0 l/m 0,0 km/h (0 Bft) S-SO 157 10,8 C 22,8 C 0,0 km/h (0 Bft)
18.09.2014 16:30 23,9 C 44 % 1016,5 hPa 0,0 l/m 0,0 km/h (0 Bft) S-SO 157 10,9 C 22,8 C 0,0 km/h (0 Bft)
18.09.2014 16:40 24,8 C 43 % 1016,5 hPa 0,0 l/m 0,0 km/h (0 Bft) S-SO 157 11,4 C 22,8 C 0,0 km/h (0 Bft)
18.09.2014 16:50 24,4 C 42 % 1016,4 hPa 0,0 l/m 0,0 km/h (0 Bft) S-SO 157 10,6 C 22,8 C 0,0 km/h (0 Bft)
18.09.2014 16:58 23,0 C 45 % 1016,4 hPa 0,0 l/m 0,0 km/h (0 Bft) S-SO 157 10,4 C 22,8 C 0,0 km/h (0 Bft)
18.09.2014 17:00 23,0 C 45 % 1016,4 hPa 0,0 l/m 0,0 km/h (0 Bft) S-SO 157 10,4 C 22,8 C 0,0 km/h (0 Bft)
18.09.2014 17:10 22,7 C 49 % 1016,8 hPa 0,0 l/m 0,0 km/h (0 Bft) S-SO 157 11,4 C 22,8 C 0,0 km/h (0 Bft)
18.09.2014 17:20 22,2 C 51 % 1016,8 hPa 0,0 l/m 0,0 km/h (0 Bft) S-SO 157 11,6 C 22,8 C 0,0 km/h (0 Bft)
18.09.2014 17:30 21,5 C 54 % 1016,8 hPa 0,0 l/m 0,0 km/h (0 Bft) S-SO 157 11,8 C 22,8 C 0,0 km/h (0 Bft)
18.09.2014 17:40 21,1 C 57 % 1016,8 hPa 0,0 l/m 0,0 km/h (0 Bft) S-SO 157 12,2 C 22,8 C 0,0 km/h (0 Bft)
18.09.2014 17:50 20,7 C 59 % 1016,7 hPa 0,0 l/m 0,0 km/h (0 Bft) S-SO 157 12,4 C 22,8 C 0,0 km/h (0 Bft)
18.09.2014 18:00 19,3 C 70 % 1016,7 hPa 0,0 l/m 0,0 km/h (0 Bft) S-SO 157 13,7 C 22,8 C 0,0 km/h (0 Bft)
18.09.2014 18:10 17,1 C 86 % 1016,6 hPa 0,0 l/m 0,0 km/h (0 Bft) S-SO 157 14,7 C 22,8 C 0,0 km/h (0 Bft)
18.09.2014 18:20 17,0 C 88 % 1016,6 hPa 0,0 l/m 0,0 km/h (0 Bft) S-SO 157 15,0 C 22,8 C 0,0 km/h (0 Bft)
18.09.2014 18:30 16,8 C 89 % 1016,5 hPa 0,0 l/m 0,0 km/h (0 Bft) S-SO 157 15,0 C 22,8 C 0,0 km/h (0 Bft)
18.09.2014 18:40 16,6 C 89 % 1016,5 hPa 0,0 l/m 0,0 km/h (0 Bft) S-SO 157 14,8 C 22,8 C 0,0 km/h (0 Bft)
18.09.2014 18:50 16,4 C 90 % 1016,4 hPa 0,0 l/m 0,0 km/h (0 Bft) S-SO 157 14,8 C 22,8 C 0,0 km/h (0 Bft)
18.09.2014 19:00 16,6 C 90 % 1016,4 hPa 0,0 l/m 0,0 km/h (0 Bft) S-SO 157 15,0 C 22,8 C 0,0 km/h (0 Bft)
18.09.2014 19:10 16,3 C 90 % 1016,5 hPa 0,0 l/m 0,0 km/h (0 Bft) S-SO 157 14,7 C 22,8 C 0,0 km/h (0 Bft)
18.09.2014 19:20 16,1 C 90 % 1016,5 hPa 0,0 l/m 0,0 km/h (0 Bft) S-SO 157 14,5 C 22,8 C 0,0 km/h (0 Bft)
18.09.2014 19:30 16,0 C 90 % 1016,6 hPa 0,0 l/m 0,0 km/h (0 Bft) S-SO 157 14,4 C 22,8 C 0,0 km/h (0 Bft)
18.09.2014 19:40 15,8 C 91 % 1016,6 hPa 0,0 l/m 0,0 km/h (0 Bft) S-SO 157 14,3 C 22,8 C 0,0 km/h (0 Bft)
18.09.2014 19:50 15,8 C 90 % 1016,6 hPa 0,0 l/m 0,0 km/h (0 Bft) S-SO 157 14,2 C 22,8 C 0,0 km/h (0 Bft)
18.09.2014 19:59 15,4 C 91 % 1016,6 hPa 0,0 l/m 0,0 km/h (0 Bft) S-SO 157 13,9 C 22,8 C 0,0 km/h (0 Bft)
18.09.2014 20:10 15,3 C 92 % 1017,2 hPa 0,0 l/m 0,0 km/h (0 Bft) S-SO 157 14,0 C 22,8 C 0,0 km/h (0 Bft)
18.09.2014 20:20 14,2 C 92 % 1017,2 hPa 0,0 l/m 0,0 km/h (0 Bft) S-SO 157 12,9 C 22,8 C 0,0 km/h (0 Bft)
18.09.2014 20:30 13,8 C 92 % 1017,8 hPa 0,0 l/m 0,0 km/h (0 Bft) S-SO 157 12,5 C 22,8 C 0,0 km/h (0 Bft)
18.09.2014 20:40 13,6 C 92 % 1017,8 hPa 0,0 l/m 0,0 km/h (0 Bft) S-SO 157 12,3 C 22,8 C 0,0 km/h (0 Bft)
18.09.2014 20:50 13,5 C 93 % 1018,2 hPa 0,0 l/m 0,0 km/h (0 Bft) S-SO 157 12,4 C 22,8 C 0,0 km/h (0 Bft)
18.09.2014 21:00 13,6 C 93 % 1018,2 hPa 0,0 l/m 0,0 km/h (0 Bft) S-SO 157 12,5 C 22,8 C 0,0 km/h (0 Bft)
18.09.2014 21:10 13,5 C 93 % 1018,8 hPa 0,0 l/m 0,0 km/h (0 Bft) S-SO 157 12,4 C 22,8 C 0,0 km/h (0 Bft)
18.09.2014 21:20 13,4 C 93 % 1018,8 hPa 0,0 l/m 0,0 km/h (0 Bft) S-SO 157 12,3 C 22,8 C 0,0 km/h (0 Bft)
18.09.2014 21:30 13,3 C 93 % 1018,6 hPa 0,0 l/m 0,0 km/h (0 Bft) S-SO 157 12,2 C 22,8 C 0,0 km/h (0 Bft)
18.09.2014 21:40 13,3 C 93 % 1018,6 hPa 0,0 l/m 0,0 km/h (0 Bft) S-SO 157 12,2 C 22,8 C 0,0 km/h (0 Bft)
18.09.2014 21:50 13,3 C 93 % 1018,5 hPa 0,0 l/m 0,0 km/h (0 Bft) S-SO 157 12,2 C 22,8 C 0,0 km/h (0 Bft)
18.09.2014 22:00 13,2 C 94 % 1018,5 hPa 0,0 l/m 0,0 km/h (0 Bft) S-SO 157 12,3 C 22,8 C 0,0 km/h (0 Bft)
18.09.2014 22:10 13,2 C 94 % 1018,5 hPa 0,0 l/m 0,0 km/h (0 Bft) S-SO 157 12,3 C 22,8 C 0,0 km/h (0 Bft)
18.09.2014 22:20 13,1 C 94 % 1018,5 hPa 0,0 l/m 0,0 km/h (0 Bft) S-SO 157 12,2 C 22,8 C 0,0 km/h (0 Bft)
18.09.2014 22:30 13,0 C 94 % 1018,6 hPa 0,0 l/m 0,0 km/h (0 Bft) S-SO 157 12,1 C 22,8 C 0,0 km/h (0 Bft)
18.09.2014 22:40 13,0 C 94 % 1018,6 hPa 0,0 l/m 0,0 km/h (0 Bft) S-SO 157 12,1 C 22,8 C 0,0 km/h (0 Bft)
18.09.2014 22:50 13,1 C 94 % 1018,5 hPa 0,0 l/m 0,0 km/h (0 Bft) S-SO 157 12,2 C 22,8 C 0,0 km/h (0 Bft)
18.09.2014 23:00 13,1 C 94 % 1018,5 hPa 0,0 l/m 0,0 km/h (0 Bft) S-SO 157 12,2 C 22,8 C 0,0 km/h (0 Bft)
18.09.2014 23:10 13,2 C 94 % 1018,4 hPa 0,0 l/m 0,0 km/h (0 Bft) S-SO 157 12,3 C 22,8 C 0,0 km/h (0 Bft)
18.09.2014 23:20 13,1 C 94 % 1018,4 hPa 0,0 l/m 0,0 km/h (0 Bft) S-SO 157 12,2 C 22,8 C 0,0 km/h (0 Bft)
18.09.2014 23:30 13,1 C 94 % 1018,3 hPa 0,0 l/m 0,0 km/h (0 Bft) S-SO 157 12,2 C 22,8 C 0,0 km/h (0 Bft)
18.09.2014 23:40 12,9 C 95 % 1018,3 hPa 0,0 l/m 0,0 km/h (0 Bft) S-SO 157 12,1 C 22,8 C 0,0 km/h (0 Bft)
18.09.2014 23:50 12,8 C 95 % 1018,2 hPa 0,0 l/m 0,0 km/h (0 Bft) S-SO 157 12,0 C 22,8 C 0,0 km/h (0 Bft)
18.09.2014 23:58 12,8 C 95 % 1018,2 hPa 0,0 l/m 0,0 km/h (0 Bft) S-SO 157 12,0 C 22,8 C 0,0 km/h (0 Bft)
_ Min-Zeit 07:20 15:00 08:00 - 23:58 - - 07:20 23:58 23:58
Minimum _ 9,3 C 35 % 1014,2 hPa - 0,0 km/h (0 Bft) - - 8,4 C 22,8 C 0,0 km/h (0 Bft)
_ Max-Zeit 12:30 23:58 12:40 23:58 23:58 - - 10:00 23:58 23:58
Maximum _ 27,6 C 95 % 1019,6 hPa 0,0 l/m 0,0 km/h
S-SO (0 Bft)
- - 17,6 C 22,8 C 0,0 km/h
S-SO (0 Bft)
Durchschnitt _ 16,9 C 76 % 1016,2 hPa #0,0 l/m 0,0 km/h (0 Bft) - - - 11,5 C 22,8 C 0,0 km/h (0 Bft)